Location: USNO
(38.9242°N, 77.0663°W)
Time: 16:12:49
(UTC-04:00)

Tiangong 2 - Pass Details

Date: 15 October 2017
Orbit: 388 x 392 km, 42.8° (Epoch: 19 October)

Event Time Altitude Azimuth Distance (km) Brightness Sun altitude
Exits shadow 05:35:48 38° 11° (N) 612 2.1 -20.6°
Drops below altitude 10° 05:38:38 10° 71° (ENE) 1,421 5.1 -20.1°
Sets 05:40:48 0° 80° (E) 2,277 6.6 -19.6°
